Regional Weather Roundup
Issued by NWS Kansas City/Pleasant Hill, MO

Home | Current Version | Previous Version | Graphics & Text | Print | Product List | Glossary Off
Versions: 1 2 3 4 5 6 7 8 9 10 11 12 13 14 15 16 17 18 19 20 21 22 23 24 25 26 27 28 29 30 31 32 33 34 35 36 37 38 39 40 41 42 43 44 45 46 47 48 49 50

000
ASUS43 KEAX 260210
RWREAX

WEATHER ROUNDUP FOR EASTERN KANSAS AND NORTHWEST MISSOURI
NATIONAL WEATHER SERVICE KANSAS CITY/PLEASANT HILL MO
900 PM CDT TUE JUL 25 2017

KSZ040-057-103>105-MOZ028-029-037-043-260300-
...KANSAS CITY METROPOLITAN AREA...

CITY           SKY/WX    TMP DP  RH WIND       PRES   REMARKS
K.C. INTL      CLEAR     86  73  65 SE7       30.02R HX  93
K.C. DOWNTOWN  CLEAR     91  71  51 SE7       30.00R HX  97
LEES SUMMIT    PTCLDY    84  78  82 E6        30.03R HX  95
OLATHE - IXD   CLEAR     85  72  65 SE7       30.03R HX  91
OLATHE - OJC   CLEAR     84  75  74 SE5       30.03R HX  92
LAWRENCE       CLEAR     82  75  79 E6        30.00R

$$

MOZ001>008-011>017-020>025-030>033-038>040-044>046-053-054-260300-
...NORTHERN AND CENTRAL MISSOURI...

CITY           SKY/WX    TMP DP  RH WIND       PRES   REMARKS
ST. JOSEPH     PTCLDY    86  79  79 SE10      29.99R HX  99
MOSBY          CLEAR     82  73  74 E5        30.02R
WARRENSBURG    CLEAR     82  72  69 E5        30.03R
WHITEMAN AFB   CLEAR     83  80  90 E3        30.04R HX  94
CLINTON        PTCLDY    81  75  83 CALM      30.04R
SEDALIA        CLEAR     83  77  82 E7        30.06R HX  92
WARSAW         NOT AVBL
CHILLICOTHE      N/A     83  76  79 SE3       30.04S HX  91
KIRKSVILLE     CLEAR     78  68  71 SE6       30.07S

$$

MOZ041-047>049-056>058-063>065-088>090-097-260300-
...EASTERN AND SOUTHERN MISSOURI...

CITY           SKY/WX    TMP DP  RH WIND       PRES   REMARKS
ST. LOUIS INTL PTCLDY    86  71  60 E9        30.06R HX  91
SPIRIT OF STL  CLEAR     84  73  69 E6        30.04R HX  90
COLUMBIA       CLEAR     80  74  81 NE6       30.06R
JEFFERSON CITY CLEAR     85  71  63 VRB5      30.04R HX  90
ROLLA          CLEAR     80  67  64 NE7       30.07R
OSAGE BEACH    PTCLDY    84  70  62 NE6       30.05R
SPRINGFIELD    PTCLDY    85  68  56 CALM      30.04S
BRANSON        MOCLDY    84  72  65 CALM      30.07S
JOPLIN         CLEAR     87  71  58 SW7       30.02S HX  93
WEST PLAINS    CLEAR     83  71  67 SE3       30.07S

$$

IAZ060-094-KSZ022-034>040-054-083-096-NEZ052-066-093-260300-
...KANSAS...SOUTHEAST NEBRASKA AND IOWA...

CITY           SKY/WX    TMP DP  RH WIND       PRES   REMARKS
TOPEKA         CLEAR     84  75  74 E6        29.99R HX  92
MANHATTAN      CLEAR     89  72  56 SE9       29.96R HX  96
EMPORIA        CLEAR     85  71  63 SE10      29.99R HX  90
CHANUTE        CLEAR     84  70  62 S6        30.01R
WICHITA        PTCLDY    89  67  47 SE14      29.95R HX  92
OMAHA          CLOUDY    88  71  57 SE15      29.93F HX  94
LINCOLN        PTCLDY    88  68  51 S13       29.93S HX  91
FALLS CITY     CLOUDY    83  73  72 SE9       29.97R
LAMONI         CLOUDY    82  75  79 SE7       30.03S
DES MOINES     CLOUDY    86  71  60 S13       29.98F HX  91

$$




USA.gov is the U.S. government's official web portal to all federal, state and local government web resources and services.